This is the latest recevied weather packets stored in our database for station/object KD2FGL-13. If no packets are shown the sender has not sent any weather packets the latest 10 day(s).
| Time | Temp. | Humidity | Pressure | Rain* | Wind** | Luminosity | Snow |
|---|---|---|---|---|---|---|---|
| 1777591269 | 14.44° C | 62% | 1010 hPa | 0 mm | - | - | - |
| 1777587926 | 15° C | 61% | 1009.7 hPa | 0 mm | - | - | - |
| 1777587622 | 15.56° C | 60% | 1009.6 hPa | 0 mm | - | - | - |
| 1777586712 | 15.56° C | 60% | 1009.5 hPa | 0 mm | - | - | - |
| 1777586407 | 15.56° C | 60% | 1009.5 hPa | 0 mm | - | - | - |
| 1777586103 | 16.11° C | 60% | 1009.4 hPa | 0 mm | - | - | - |
| 1777585496 | 16.11° C | 60% | 1009.2 hPa | 0 mm | - | - | - |
| 1777584280 | 15.56° C | 60% | 1009.2 hPa | 0 mm | - | - | - |
| 1777583976 | 15.56° C | 60% | 1009.1 hPa | 0 mm | - | - | - |
| 1777583671 | 15.56° C | 60% | 1009 hPa | 0 mm | - | - | - |
| 1777583367 | 15.56° C | 60% | 1009 hPa | 0 mm | - | - | - |
| 1777582456 | 15.56° C | 59% | 1008.8 hPa | 0 mm | - | - | - |
| 1777581848 | 16.11° C | 58% | 1008.7 hPa | 0 mm | - | - | - |
| 1777580936 | 16.11° C | 58% | 1008.5 hPa | 0 mm | - | - | - |
| 1777580328 | 16.11° C | 58% | 1008.4 hPa | 0 mm | - | - | - |
| 1777580025 | 16.11° C | 58% | 1008.5 hPa | 0 mm | - | - | - |
| 1777579720 | 16.11° C | 58% | 1008.5 hPa | 0 mm | - | - | - |
| 1777578505 | 16.67° C | 56% | 1008.4 hPa | 0 mm | - | - | - |
| 1777576985 | 16.67° C | 54% | 1008.2 hPa | 0 mm | - | - | - |
| 1777575162 | 16.67° C | 54% | 1008.3 hPa | 0 mm | - | - | - |
| 1777574860 | 16.67° C | 54% | 1008.4 hPa | 0 mm | - | - | - |
| 1777574554 | 16.67° C | 54% | 1008.5 hPa | 0 mm | - | - | - |
| 1777574250 | 17.22° C | 54% | 1008.4 hPa | 0 mm | - | - | - |
| 1777573643 | 17.22° C | 55% | 1008.5 hPa | 0 mm | - | - | - |
| 1777573338 | 17.22° C | 55% | 1008.2 hPa | 0 mm | - | - | - |
* Rain since midnight (hover to see other rain measurements)
** Current wind speed in m/s (hover to see current wind gust speed)